Regional Weather Roundup
Issued by NWS

Home | Current Version | Previous Version | Text Only | Print | Product List | Glossary Off
Versions: 1 2 3 4 5 6 7 8 9 10 11 12 13 14 15 16 17 18 19 20 21 22 23 24 25 26 27 28 29 30 31 32 33 34 35 36 37 38 39 40 41 42 43 44 45 46 47 48 49 50

000
ASUS43 KTOP 091359
RWRKS

WEATHER ROUNDUP FOR KANSAS
NATIONAL WEATHER SERVICE GOODLAND KS
800 AM CST FRI DEC 09 2016

NOTE:  "FAIR" INDICATES FEW OR NO CLOUDS BELOW 12,000 FEET WITH NO
SIGNIFICANT WEATHER AND/OR OBSTRUCTIONS TO VISIBILITY.

KSZ001>006-013>018-027>032-041>047-091500-
NORTHWEST KANSAS

CITY           SKY/WX    TMP DP  RH WIND       PRES   REMARKS
GOODLAND       CLOUDY     9   5  84 S12       30.23F WCI  -6
HAYS           CLOUDY    19  11  70 SE14      30.47F WCI   6
HILL CITY      CLOUDY    19   9  65 S10       30.43F WCI   7
RUSSELL        CLOUDY    18  11  74 SE12      30.50R WCI   5
$$

KSZ061>065-074>080-084>089-091500-
SOUTHWEST KANSAS

CITY           SKY/WX    TMP DP  RH WIND       PRES   REMARKS
DODGE CITY     CLOUDY    20   7  57 SE15      30.42R WCI   6
ELKHART          N/A     24  10  55 S12         N/A  WCI  13
GARDEN CITY    CLOUDY    21   7  54 SE21      30.34F WCI   5
GREAT BEND     CLOUDY    20  11  68 SE16      30.50S WCI   6
LIBERAL        CLOUDY    27   9  46 SE16      30.34F WCI  14
$$

KSZ066>073-081>083-090>101-091500-
SOUTHEAST KANSAS

CITY           SKY/WX    TMP DP  RH WIND       PRES   REMARKS
CHANUTE        CLOUDY    14  10  84 CALM      30.64F
COFFEYVILLE    CLOUDY    14  12  92 CALM      30.67F
HUTCHINSON     CLOUDY    20  13  74 SE8       30.57R
MEDICINE LODGE   N/A     20  10  65 SE7       30.56R
NEWTON         CLOUDY    17  12  80 SE10      30.58S WCI   5
PARSONS        CLOUDY    11   7  84 CALM      30.66F
WICHITA INTL   CLOUDY    18  12  77 SE5       30.59R
WICHITA JABRA  CLOUDY    17  12  80 E6        30.59R
WINFIELD       CLOUDY    17  10  74 SE5       30.62S
$$

KSZ007>012-019>026-033>040-048>060-102>105-091500-
NORTHEAST KANSAS

CITY           SKY/WX    TMP DP  RH WIND       PRES   REMARKS
CONCORDIA      CLOUDY    17  13  84 SE5       30.57R
EMPORIA        CLOUDY    16  12  84 SE6       30.62S
LAWRENCE       PTCLDY    14  11  87 CALM      30.65F
MANHATTAN      CLOUDY    16  12  84 CALM      30.62F
OLATHE IND     CLOUDY    15  11  83 SE3       30.64S
OLATHE EXE     CLOUDY    14  10  84 CALM      30.64R
SALINA         CLOUDY    20  12  71 SE9       30.59S
TOPEKA BILLARD CLOUDY    16  10  77 CALM      30.65S
TOPEKA FORBES  CLOUDY    16  12  84 S3        30.63F
$$



USA.gov is the U.S. government's official web portal to all federal, state and local government web resources and services.